C/2001 O2 ( NEAT )

Japanese version
Home page
Updated on September 17, 2001

---------------------------------------------------------------------

* Profile

Discovery Date July 25, 2001
Magnitude 19.3 mag
Discoverer Near-Earth-Asteroid Tracking Team (Jet Propulsion Laboratory)

* Orbital Elements

T 1999 Oct. 18.0518 TT                                  Marsden
q   4.838721             (2000.0)            P               Q
                   Peri.  281.1810      +0.1752910      +0.8362063
                   Node   328.6853      +0.3122131      -0.5477896
e   1.0            Incl.   91.0821      -0.9337002      -0.0261836
>From 44 observations 2001 July 25-Sept. 11.

* Finding Charts

* Magnitudes Graph

        m1 = 6.0 + 5 log d + 10.0 log r

---------------------------------------------------------------------

The orbital elements are calculated by Dr. Brian G. Marsden and printed on M.P.E.C. 2001-R53.
The charts are made with StellaNavigator Ver.2.0 for Windows (AstroArts / ASCII).
The magnitudes graphs are made with Comet for Windows.

---------------------------------------------------------------------

Copyright(C) Seiichi Yoshida (comet@aerith.net). All rights reserved.